Regional Weather Roundup
Issued by NWS Grand Forks, ND

Home | Current Version | Previous Version | Text Only | Print | Product List | Glossary Off
Versions: 1 2 3 4 5 6 7 8 9 10 11 12 13 14 15 16 17 18 19 20 21 22 23 24 25 26 27 28 29 30 31 32 33 34 35 36 37 38 39 40 41 42 43 44 45 46 47 48 49 50

000
ASUS43 KFGF 221610
RWRFGF
PRAIRIE TO PINES  WEATHER ROUNDUP
NATIONAL WEATHER SERVICE EASTERN NORTH DAKOTA/GRAND FORKS ND
1100 AM CDT TUE JUL 22 2014

 **SATELLITE DATA USED TO AUGMENT SKY COVER AT AUTOMATED STATIONS**
 *****  WEATHER ACROSS EASTERN NORTH DAKOTA  *****

CITY           SKY/WX    TMP DP  RH WIND       PRES   REMARKS
GRAND FORKS    MOSUNNY   72  57  59 N12       30.12R
GRAND FRKS AFB SUNNY     72  58  61 N10       30.14R
GRAND FRKS NWS   N/A     72 N/A N/A N12         N/A
DEVILS LAKE    MOSUNNY   70  55  60 CALM      30.15R
FARGO          SUNNY     74  58  57 N12       30.11R
WAHPETON ARPT  SUNNY     72  55  56 N13G21    30.11R
$$

 ***** WEATHER ACROSS CENTRAL AND WESTERN NORTH DAKOTA  *****

CITY           SKY/WX    TMP DP  RH WIND       PRES   REMARKS
BISMARCK       MOSUNNY   70  62  76 E6        30.20R
MINOT          CLOUDY    70  60  70 VRB3      30.18R
JAMESTOWN      SUNNY     72  59  63 N8        30.16R
MINOT AFB      MOSUNNY   69  64  84 NE3       30.18R
GARRISON         N/A     72  63  73 CALM      30.19R
WILLISTON      SUNNY     75  62  64 CALM      30.17S
DICKINSON      MOSUNNY   70  63  78 E3        30.20S
HETTINGER      SUNNY     73  61  65 VRB6      30.22R
$$

 *****  OTHER AIRPORT OBSERVATIONS IN OUR AREA  *****

CITY           SKY/WX    TMP DP  RH WIND       PRES   REMARKS
WALHALLA         N/A     72  55  56 N8          N/A
GRAFTON AIRPOR FAIR      72  55  56 NW9       30.13R
VALLEY CITY AR FAIR      72  63  73 N6        30.15R
CANDO          FAIR      72  61  68 NE5         N/A
CAVALIER APRT  FAIR      70  55  60 N8        30.13R
GWINNER        SUNNY     73  61  64 N10       30.15R
ROLLA            N/A     70  59  68 CALM      30.19R
 ***** THE ABOVE OBSERVATIONS ARE NON NWS ARE NOT QUALITY
       CONTROLLED AND MAY MIS-REPORT RAIN FOR SNOW...
$$

  *****  WEATHER ACROSS NORTHERN MINNESOTA  *****

CITY           SKY/WX    TMP DP  RH WIND       PRES   REMARKS
FLAG ISLAND    SUNNY     66  55  68 NW14      30.02R
WARROAD        SUNNY     72  57  60 NW13      30.05R
ROSEAU         SUNNY     72  57  60 N14       30.06R
HALLOCK        SUNNY     72  57  60 N10G17    30.10R
THF RVR FALLS  SUNNY     70  54  56 NW15      30.10R
BAUDETTE       SUNNY     69  57  65 NW14G20   30.03R
WASKISH        SUNNY     70  61  73 NW9G16    30.03R
CROOKSTON      NOT AVBL
$$
  *****  WEATHER ACROSS CENTRAL AND WEST MINNESOTA  *****

CITY           SKY/WX    TMP DP  RH WIND       PRES   REMARKS
FOSSTON        SUNNY     68  57  68 NW16      30.09R
BEMIDJI        SUNNY     70  55  59 NW15      30.05R
PARK RAPIDS    SUNNY     71  58  63 NW15      30.05R
ELBOW LAKE     FAIR      70  61  73 N14G24    30.08R
WADENA         SUNNY     70  59  68 NW13G22   30.06R
DETROIT LAKES  SUNNY     70  59  68 N13G21    30.11R
MOORHEAD       SUNNY     72  63  73 N10       30.11R
FERGUS FALLS   SUNNY     72  57  60 N14       30.09R
MORRIS MN      SUNNY     73  63  68 NW20G26   30.07R
STAPLES        MOSUNNY   72  59  64 N15G22    30.04S
$$
  *****  WEATHER ELSEWHERE ACROSS MINNESOTA  *****

CITY           SKY/WX    TMP DP  RH WIND       PRES   REMARKS
DULUTH         CLOUDY    71  62  73 NW15G24   29.92R
INTRNTL FALLS  MOSUNNY   70  60  70 NW14      29.97R
ELY            CLOUDY    66  63  88 NW9G16    29.90R
CLOQUET        CLOUDY    70  63  78 NW14G21   29.94S
WHEATON        SUNNY     72  61  68 NW15      30.11R
BRAINERD       MOSUNNY   72  60  66 N17       30.01F
HIBBING        PTSUNNY   71  61  70 NW20G29   29.96R
ALEXANDRIA     MOSUNNY   72  62  71 N13G26    30.07R
SAINT CLOUD    CLOUDY    75  63  66 NW16G25   29.99R
MINNEAPOLIS    PTSUNNY   80  65  59 N16       29.97R
$$

  *****  WEATHER ACROSS SOUTH DAKOTA  *****

CITY           SKY/WX    TMP DP  RH WIND       PRES   REMARKS
SIOUX FALLS    PTSUNNY   77  66  68 N12G20    30.08R
BROOKINGS      NOT AVBL
WATERTOWN      MOSUNNY   74  57  55 N22G30    30.10R
HURON          CLOUDY    74  64  71 N15       30.11R
SISSETON         N/A     73  61  65 N16       30.10R
ABERDEEN       MOSUNNY   73  61  65 N15       30.14R
MITCHELL       MOSUNNY   75  65  70 MISG      30.12R
PIERRE         PTSUNNY   72  63  73 NE14      30.14R
MOBRIDGE       MOSUNNY   72  63  73 N8        30.16S
RAPID CITY     SUNNY     76  64  66 CALM      30.22S
$$

  *****  SOME WEATHER IN NEARBY STATES *****

CITY           SKY/WX    TMP DP  RH WIND       PRES   REMARKS
GLASGOW MT     SUNNY     76  53  44 N5        30.17R
GREAT FALLS MT PTSUNNY   69  49  48 SW7       30.18S
CHEYENNE WY    SUNNY     73  56  54 NW12G21   30.38S
SCOTTSBLUFF NE SUNNY     82  59  45 SE9       30.25R
OMAHA NE       MOSUNNY   88  74  63 E10       29.96F HX  96
DES MOINES IA  CLOUDY    87  76  69 CALM      29.96R HX  97
DAVENPORT IA   PTSUNNY   82  73  74 W13       29.99R
CHICAGO IL     MOSUNNY   83  65  54 SW16G25   30.00S
EAU CLAIRE WI  PTSUNNY   80  65  59 NW10      29.93R
LA CROSSE WI   SUNNY     88  74  63 SW5       29.88S HX  96
$$

  *****  SOME NATIONAL WEATHER *****

CITY           SKY/WX    TMP DP  RH WIND       PRES   REMARKS
LA GUARDIA NY  MOSUNNY   84  65  52 SW10      30.13F
RALEIGH NC     PTSUNNY   81  71  71 E8        30.17F
ATLANTA GA     CLOUDY    77  70  78 CALM      30.16S
NEW ORLEANS LA PTSUNNY   88  76  67 NE6       30.03S HX  99
OKLAHOMA CITY  PTSUNNY   86  74  67 S9        30.11F HX  94
ALBUQUERQUE NM MOSUNNY   84  51  31 NW8       30.29S
SALT LAKE CITY PTSUNNY   82  38  20 VRB3      30.21R
LOS ANGELES CA MOSUNNY   72  61  68 S5        30.06R
BOISE ID       SUNNY     79  51  37 SE14      30.15R
SEATTLE WA     CLOUDY    59  53  80 S5        30.06S
$$

*** WEATHER ACROSS MANITOBA...SASKATCHEWAN AND ONTARIO ***
                ***ONTARIO***

CITY           SKY/WX    TMP DP  RH WIND       PRES   REMARKS
GERALDTON      LGT RAIN  64  63  94 S6        29.68F FOG
THUNDER BAY    CLOUDY    70  64  83 NW17G29   29.69R
SIOUX LOOKOUT  PTSUNNY   64  57  77 N9        29.96R
TORONTO        SUNNY     82  64  54 S8        30.07F
BIG TROUT LK   SUNNY     59  45  58 NE8       30.02R
PICKLE LAKE    CLOUDY    59  54  82 N9        29.94R
DRYDEN         MOSUNNY   66  57  72 N7G17     29.98R
KENORA         MOSUNNY   68  52  56 N10       30.04R
$$
                *** MANITOBA***

CITY           SKY/WX    TMP DP  RH WIND       PRES   REMARKS
BRANDON        PTSUNNY   72  63  73 E5        30.17R
DAUPHIN        SUNNY     70  59  68 NW3       30.16R
ISLAND LAKE    MOSUNNY   61  48  63 N6        30.13R
PILOT MOUND      N/A     70  55  60 N7          N/A
THE PAS        MOSUNNY   63  52  67 NW3       30.20R
THOMPSON       PTSUNNY   61  50  67 W5        30.17R
WINNIPEG       MOSUNNY   72  57  60 N8        30.11R
LYNN LAKE      MOSUNNY   64  43  45 N12       30.19R
CHURCHILL      MOSUNNY   59  50  72 N12       30.06R
GILLAM         PTSUNNY   59  54  82 NW10      30.12R
$$
                ***SASKATCHEWAN***

CITY           SKY/WX    TMP DP  RH WIND       PRES   REMARKS
ESTEVAN        PTSUNNY   72  57  60 E6        30.19R
KINDERSLEY     MOSUNNY   68  59  73 SE6       30.22R
LLOYDMINSTER   SUNNY     70  54  56 SE7       30.20S
PRINCE ALBERT  CLOUDY    66  57  72 VRB2      30.21R
REGINA         MOSUNNY   72  54  53 NE2       30.21R
YORKTON        SUNNY     70  55  60 VRB5      30.19R
N. BATTLEFORD  SUNNY     68  59  73 CALM      30.23R
LA RONGE       SUNNY     68  55  64 S3        30.19R
SASKATOON      MOSUNNY   70  57  64 SE2       30.22R
SWIFT CURRENT  SUNNY     66  55  68 SE6       30.21S
$$
NOTE: THESE ARE AUTOMATED STATIONS WITH LIMITED QUALITY CONTROL
      "FAIR" INDICATES FEW OR NO CLOUDS BELOW 12,000 FEET WITH NO
      SIGNIFICANT WEATHER AND/OR OBSTRUCTIONS TO VISIBILITY.
      SKY/WX - SKY CONDITION AND SIGNIFICANT WEATHER.
      TMP - AIR TEMPERATURE.    DP   - DEWPOINT TEMPERATURE.
      RH  - RELATIVE HUMIDITY.  PRES - PRESSURE.
      HX  - HEAT INDEX.         WCI  - WIND CHILL INDEX.
$


USA.gov is the U.S. government's official web portal to all federal, state and local government web resources and services.